Regional Weather Roundup
Issued by NWS Charleston, WV

Home | Current Version | Previous Version | Graphics & Text | Print | Product List | Glossary On
Versions: 1 2 3 4 5 6 7 8 9 10 11 12 13 14 15 16 17 18 19 20 21 22 23 24 25 26 27 28 29 30 31 32 33 34 35 36 37 38 39 40 41 42 43 44 45 46 47 48 49 50
000
ASUS41 KRLX 300810
RWRRLX
West Virginia Regional Weather Roundup
National Weather Service Charleston WV
400 AM EDT SAT MAY 30 2015

Note: "fair" indicates few or no clouds below 12,000 feet with no
significant weather and/or obstructions to visibility.

WVZ003-300900-
Northern Panhandle of West Virginia

CITY           SKY/WX    TMP DP  RH WIND       PRES   REMARKS
WHEELING       CLEAR     68  61  78 S7        30.10F
$$

WVZ009-300900-
Northwest West Virginia

CITY           SKY/WX    TMP DP  RH WIND       PRES   REMARKS
PARKERSBURG    CLEAR     66  62  87 S3        30.13F
$$

WVZ006-300900-
Western West Virginia

CITY           SKY/WX    TMP DP  RH WIND       PRES   REMARKS
HUNTINGTON     PTCLDY    67  65  93 S7        30.11S
$$

WVZ015-300900-
West Central West Virginia

CITY           SKY/WX    TMP DP  RH WIND       PRES   REMARKS
CHARLESTON     PTCLDY    64  63  96 CALM      30.12F FOG
$$

WVZ022-031-300900-
North Central West Virginia

CITY           SKY/WX    TMP DP  RH WIND       PRES   REMARKS
CLARKSBURG     PTCLDY    65  63  93 CALM      30.13F
MORGANTOWN     CLEAR     69  60  73 CALM      30.14F
$$

WVZ025-035-042-045-300900-
Southern West Virginia

CITY           SKY/WX    TMP DP  RH WIND       PRES   REMARKS
BECKLEY        MOCLDY    64  59  83 SE7       30.22F
LOGAN          CLOUDY    66  64  94 CALM      30.13S
BLUEFIELD      MOCLDY    68  58  70 NW3       30.24F
LEWISBURG      CLOUDY    61  59  92 CALM      30.23F
$$

WVZ047-300900-
Northern Mountains of West Virginia

CITY           SKY/WX    TMP DP  RH WIND       PRES   REMARKS
ELKINS         MOCLDY    61  59  93 CALM      30.19F FOG
$$

WVZ052-300900-
Eastern Panhandle of West Virginia

CITY           SKY/WX    TMP DP  RH WIND       PRES   REMARKS
MARTINSBURG    CLEAR     65  63  93 CALM      30.16F FOG
PETERSBURG     MOCLDY    62  60  94 CALM      30.17F FOG
$$


USA.gov is the U.S. government's official web portal to all federal, state and local government web resources and services.